EHI
7 12 18 13 4 0 0 0 0 0 0 0 0 0 0 0 0 0 0 0 1 2 1 0 0 1 1 1 0 1 1 1 0 0 0 0 1 2 2 2 1 0 0 0 0 0 0 0 0
7 11 14 9 3 0 0 0 0 0 0 0 0 0 0 0 0 0 0 0 1 2 1 0 0 0 1 1 1 3 3 1 0 0 0 0 0 1 1 2 2 1 0 0 0 0 0 0 0
9 9 7 4 1 0 0 0 0 0 0 0 0 0 0 0 0 0 0 0 1 1 1 0 0 0 0 1 2 3 4 2 1 1 1 1 1 0 0 1 1 1 0 1 0 0 0 0 0
11 8 4 1 0 0 0 0 0 0 0 0 0 0 0 0 0 0 0 0 0 0 0 0 0 0 0 1 2 2 2 2 2 2 3 2 1 0 0 0 0 0 0 0 0 0 0 0 0
12 7 2 0 0 0 0 0 0 0 0 0 0 0 0 0 0 0 0 0 0 0 0 0 0 0 0 0 1 2 2 3 3 3 3 2 1 0 0 0 0 0 0 0 0 0 0 0 0
7 4 1 0 0 0 0 0 0 0 0 0 0 0 0 0 0 0 0 0 0 0 0 0 0 0 0 0 0 1 2 2 2 2 3 2 1 0 0 0 0 0 0 0 0 0 0 0 0
1 1 0 0 0 0 0 0 0 0 0 0 0 0 0 0 0 0 0 0 0 0 0 0 0 0 0 0 0 0 1 1 0 1 2 2 2 1 0 0 0 0 0 0 0 0 0 0 0
0 0 0 0 0 0 0 0 0 0 0 0 0 0 0 0 0 0 0 0 0 0 0 0 0 0 0 0 0 0 0 0 0 0 1 2 2 1 0 0 0 0 0 0 0 0 0 0 0
0 0 0 0 0 0 0 0 0 0 0 0 0 0 0 0 0 0 0 0 0 0 0 0 0 0 0 0 0 0 0 0 0 0 0 1 1 0 0 0 0 0 0 0 0 0 0 0 0
0 0 0 0 0 0 0 0 0 0 0 0 0 0 0 0 0 0 0 0 0 0 0 0 0 0 0 0 0 0 0 0 0 0 0 0 0 0 0 0 0 0 0 0 0 0 0 0 0
0 0 0 0 0 0 0 0 0 0 0 0 0 0 0 0 0 0 0 0 0 0 0 0 0 0 0 0 0 0 0 0 0 0 0 0 0 0 0 0 0 0 0 0 0 0 0 0 0
0 0 0 0 0 0 0 0 0 0 0 0 0 0 0 0 0 0 0 0 0 0 0 0 0 0 0 0 0 0 0 0 0 0 0 0 0 0 0 0 0 0 0 0 0 0 0 0 0
0 0 0 0 0 0 0 0 0 0 1 1 1 0 0 0 0 0 0 0 0 0 0 0 0 0 0 0 0 0 0 0 0 0 0 0 0 0 0 0 0 0 0 0 0 0 0 0 0
0 0 0 0 0 0 0 0 0 0 1 1 1 0 0 0 0 0 0 0 0 0 0 0 0 0 0 0 0 0 0 0 0 0 0 0 0 0 0 0 0 0 0 0 0 0 0 0 0
0 0 0 0 0 0 0 0 0 0 0 1 1 0 0 0 0 0 0 0 0 0 0 0 0 0 0 0 0 0 0 0 0 0 0 0 0 0 0 0 0 0 0 0 0 0 0 0 0
0 0 0 0 0 0 0 0 0 0 0 0 0 0 0 0 0 0 0 0 0 0 0 0 0 0 0 0 0 0 0 0 0 0 0 0 0 0 0 0 0 0 0 0 0 0 0 0 0
0 0 0 0 0 0 0 0 0 0 0 0 0 1 1 1 0 0 0 0 0 0 0 0 0 0 0 0 0 0 0 0 0 0 0 0 0 0 0 0 0 0 0 0 0 0 0 0 0
0 0 0 0 0 0 0 0 0 0 0 0 0 1 2 1 0 0 0 0 0 0 0 0 0 0 0 0 0 0 0 0 0 0 0 0 0 0 0 0 0 0 0 0 0 0 0 0 0
0 0 0 0 0 0 0 0 0 0 0 0 0 1 2 1 0 0 0 0 0 0 0 0 0 0 0 0 0 0 0 0 0 0 0 0 0 0 0 0 0 0 0 0 0 0 0 0 0
0 0 0 0 0 0 0 0 0 0 0 0 1 2 1 1 1 0 0 0 0 0 0 0 0 0 0 0 0 0 0 0 0 0 0 0 0 0 0 0 0 0 0 0 0 0 0 0 0
0 0 0 0 0 0 0 0 0 0 0 0 1 2 1 0 0 0 0 0 0 0 0 0 0 0 0 0 0 0 0 0 0 0 0 0 0 0 0 0 0 0 0 0 0 0 0 0 0
0 0 0 0 0 0 0 0 0 0 0 0 1 2 1 0 0 1 1 1 1 1 1 1 1 0 0 0 0 0 0 0 0 0 0 0 0 0 0 0 0 0 0 0 0 0 0 0 0
0 0 0 0 0 0 0 0 0 0 0 0 1 2 1 0 0 1 2 2 2 2 2 3 2 1 1 1 1 1 1 0 0 0 0 0 0 0 0 0 0 0 0 0 0 0 0 0 0
0 0 0 0 0 0 0 0 0 0 0 0 1 2 1 0 0 1 1 2 3 3 3 4 3 3 3 2 2 2 1 0 0 0 0 0 0 0 0 0 0 0 0 0 0 0 0 0 0
0 0 0 0 0 0 0 0 0 0 0 0 1 2 1 0 1 1 2 2 4 5 4 4 3 3 4 4 3 2 1 0 0 0 0 0 0 0 0 0 0 0 0 0 0 0 0 0 0
0 0 0 0 0 0 0 0 0 0 0 0 1 2 1 0 1 2 3 4 5 6 5 4 4 4 4 3 2 1 0 0 0 0 0 0 0 0 0 0 0 0 0 0 0 0 0 0 0
0 0 0 0 0 0 0 0 0 0 0 0 1 2 1 0 1 3 4 5 5 6 5 5 5 4 4 3 2 0 0 0 0 0 0 0 0 0 0 0 0 0 0 0 0 0 0 0 0
0 0 0 0 0 0 0 0 0 0 0 0 1 1 1 0 1 3 4 4 4 4 4 4 4 4 3 3 2 0 0 0 0 0 0 0 0 0 0 0 0 0 0 0 0 0 0 0 0
0 0 0 0 0 0 0 0 0 0 0 0 0 0 0 0 1 3 4 3 3 3 3 3 3 2 2 2 1 0 0 0 0 0 0 0 0 0 0 0 0 0 0 0 0 0 0 0 0
0 0 0 0 0 0 0 0 0 0 0 0 0 0 0 1 2 3 2 1 2 3 3 3 2 1 1 1 1 1 0 0 0 0 0 0 0 0 0 0 0 0 0 0 0 0 0 0 0
Wind_Speed
8 8 5 2 2 1 3 6 7 7 7 9 9 10 12 11 8 7 2 3 7 9 10 10 11 11 11 11 10 10 10 10 10 10 9 9 9 10 9 9 9 10 10 10 9 10 9 9 9
9 6 3 2 2 1 5 6 9 9 7 5 8 10 12 11 10 8 3 3 7 10 11 10 11 11 11 11 11 10 10 9 9 9 8 8 8 8 9 8 8 9 9 9 9 9 9 8 8
11 6 3 2 1 4 5 7 7 8 6 6 8 10 9 7 8 5 3 6 9 12 11 11 12 12 11 11 10 10 10 9 9 8 8 8 8 8 8 8 8 8 9 9 9 8 9 8 7
5 3 4 1 6 7 6 6 5 6 6 7 9 10 9 8 6 7 6 8 10 11 11 10 12 12 12 11 11 10 10 9 9 9 8 8 9 8 8 8 8 8 9 9 8 8 8 8 7
4 3 2 2 6 7 7 6 6 6 7 9 11 11 9 8 10 9 7 8 9 10 11 11 12 13 12 12 11 10 10 10 10 9 9 9 9 9 9 9 9 9 8 8 8 8 7 7 6
3 3 2 3 7 7 7 7 7 8 8 9 10 11 8 7 8 8 7 6 8 9 11 10 12 12 12 11 10 10 9 9 9 9 9 9 9 8 9 9 9 9 8 8 8 7 6 6 5
4 3 0 4 6 6 7 7 7 7 8 7 7 10 8 8 6 7 7 6 6 7 9 9 9 9 11 11 10 9 9 9 8 8 8 8 8 8 8 8 8 8 8 7 7 6 5 5 4
3 3 1 3 4 6 6 6 6 7 7 6 6 8 8 8 7 7 6 6 5 5 6 7 7 7 8 8 9 9 9 8 7 7 7 7 7 8 8 8 8 7 7 6 6 5 4 3 3
4 2 3 4 3 5 5 6 6 5 7 9 11 11 12 11 9 7 6 6 5 5 5 6 6 5 6 7 9 8 8 7 6 4 6 6 3 4 4 7 8 7 5 5 4 4 3 3 2
1 1 4 5 4 5 5 5 4 5 7 10 12 13 12 9 8 6 6 6 5 4 4 5 5 5 5 5 5 4 4 4 3 3 3 2 2 3 6 7 7 6 5 4 3 4 3 2 1
1 3 4 5 5 4 5 5 3 4 6 7 10 11 10 8 7 6 6 5 5 5 3 4 4 5 4 3 3 2 2 2 2 3 3 2 3 2 3 3 3 3 3 2 3 3 2 2 1
3 4 4 4 4 3 3 4 4 6 6 7 9 10 9 8 7 6 6 6 6 5 4 3 3 4 5 4 2 2 2 2 2 2 3 2 1 1 2 1 2 2 1 1 1 1 2 2 2
3 3 3 3 2 2 3 4 4 6 6 7 9 9 7 6 6 5 5 6 6 5 4 3 2 4 5 4 1 3 2 2 2 1 2 2 2 2 2 1 1 2 1 1 1 2 4 4 3
2 3 3 3 2 1 2 3 4 6 6 7 8 8 7 5 5 5 5 5 6 5 5 3 3 4 4 4 2 3 3 2 2 1 1 3 2 1 1 2 2 2 1 1 2 4 4 3 3
1 2 3 3 4 3 2 2 4 7 7 7 7 7 7 6 5 4 4 4 5 6 7 4 3 4 4 5 4 3 2 3 2 1 1 3 2 2 2 2 2 2 2 3 3 4 3 3 4
5 5 4 5 4 4 4 3 6 8 8 7 6 7 6 5 6 5 5 4 4 6 8 5 3 4 5 4 2 2 3 3 2 2 2 3 3 3 3 3 2 2 3 3 3 3 3 3 4
6 6 4 5 6 5 5 3 7 8 8 8 8 7 7 7 6 6 5 5 4 5 7 6 4 4 5 3 2 3 3 2 2 3 3 3 3 4 4 2 2 3 3 2 3 3 3 3 3
4 5 3 4 6 5 4 4 7 9 9 8 8 8 8 8 7 6 5 5 4 4 5 6 5 4 4 2 3 2 3 2 3 2 3 3 2 3 3 1 3 3 3 3 3 3 3 2 2
6 5 3 1 3 3 5 6 7 10 9 8 8 8 9 8 8 7 6 6 5 4 4 6 6 5 4 2 2 2 2 1 2 2 2 2 2 3 3 2 3 2 3 3 3 3 3 2 2
7 6 3 1 2 3 6 7 6 9 10 9 9 9 8 8 8 8 7 7 6 5 4 5 6 5 4 1 2 3 3 2 2 2 2 2 2 2 2 2 2 2 2 3 3 3 1 1 1
6 5 4 3 2 5 7 6 6 8 9 8 8 8 9 9 10 10 8 7 7 5 4 5 6 5 5 3 2 3 3 2 2 2 1 2 2 2 2 2 2 2 2 2 2 2 2 1 1
5 4 4 4 4 4 5 4 5 8 8 8 8 7 8 9 9 10 9 8 7 6 4 5 5 5 5 5 3 3 3 2 2 2 2 2 2 2 2 2 2 2 2 2 2 2 2 2 1
4 4 4 6 6 7 8 6 3 7 8 9 9 9 8 9 9 10 10 9 7 6 4 4 5 5 4 5 4 2 2 2 2 2 3 2 2 2 2 2 1 1 2 2 2 3 2 1 1
3 4 6 6 5 7 9 7 2 5 7 8 8 9 9 9 9 10 9 8 7 6 5 4 5 4 4 4 4 3 3 3 3 2 2 2 2 1 2 1 1 1 2 2 2 2 2 1 1
5 4 3 4 5 5 4 4 1 5 5 5 6 7 8 8 9 9 10 9 8 8 6 5 5 5 4 3 4 4 4 4 4 3 2 2 2 1 2 2 1 1 1 2 2 2 2 2 2
6 7 4 3 3 2 2 3 3 8 6 4 5 5 7 7 8 9 9 8 9 9 7 6 6 5 4 3 3 3 4 2 2 3 3 2 2 2 2 3 2 1 1 2 2 1 1 2 2
7 7 8 7 9 6 3 2 7 6 6 4 5 6 6 8 8 10 10 9 8 9 8 7 6 5 4 3 3 3 4 3 2 3 2 2 2 2 3 4 3 2 2 2 2 1 2 3 3
8 6 4 4 4 5 3 3 3 6 5 4 5 5 6 7 9 10 10 9 9 8 7 7 7 6 5 4 3 3 3 3 2 2 2 2 2 2 3 3 3 3 3 3 3 2 2 3 3
8 7 6 5 5 4 3 1 4 5 4 4 4 5 6 7 8 9 9 9 9 9 8 7 6 6 5 5 3 3 3 4 3 2 2 2 2 3 3 3 3 4 3 3 3 2 2 2 2
8 8 7 5 5 5 4 0 2 4 4 3 4 5 6 6 7 8 9 9 9 9 9 8 7 6 5 5 4 4 4 4 4 3 2 2 2 2 3 3 3 3 3 4 4 2 2 2 2
Wind_Direction
267 249 239 243 261 230 54 56 65 57 57 51 51 65 67 51 49 83 102 42 75 86 91 82 79 83 83 83 86 90 91 89 89 88 89 90 91 92 90 86 84 85 83 81 80 80 78 75 72
277 264 253 241 268 50 63 64 67 62 74 80 63 66 74 65 69 90 91 67 80 83 81 79 81 85 85 85 86 88 89 91 94 95 93 93 95 96 95 90 87 86 85 82 78 77 77 74 72
267 260 253 244 9 51 67 67 77 80 71 73 75 59 54 59 69 85 104 97 87 84 82 82 82 85 88 87 88 90 89 91 98 100 97 96 98 98 98 96 91 88 89 84 78 72 73 71 67
265 262 246 233 66 64 74 81 82 84 72 64 81 74 69 51 78 102 103 96 94 95 92 89 86 88 90 89 88 88 89 91 94 96 98 99 100 98 99 98 96 94 91 87 82 75 73 71 64
251 256 265 93 80 74 71 73 68 71 70 67 82 90 81 74 90 95 88 91 96 100 101 98 94 92 92 91 88 88 89 88 89 89 95 97 98 98 98 96 97 96 91 88 86 81 74 73 65
270 252 267 87 89 81 74 66 66 73 78 74 93 99 92 98 94 93 94 94 101 108 111 110 105 103 99 95 91 88 88 88 89 90 91 93 97 101 100 98 98 94 88 85 87 84 75 68 64
282 288 347 94 96 85 77 68 63 62 64 57 78 100 112 112 113 112 106 99 100 108 118 128 129 117 109 103 100 96 94 94 96 99 101 103 105 105 104 103 103 100 98 95 93 88 79 74 65
284 301 359 82 91 89 85 82 75 69 72 63 61 101 122 128 132 122 120 114 106 108 112 118 125 128 128 119 114 112 110 110 112 116 121 121 120 117 114 110 105 105 105 104 104 102 101 95 81
277 304 32 58 74 94 100 96 87 85 87 76 70 85 113 131 135 130 126 116 106 103 113 115 117 119 123 126 131 136 135 138 142 145 160 159 154 138 127 110 114 113 115 122 128 137 149 139 123
242 36 54 46 64 100 99 91 104 110 100 99 97 103 120 134 140 135 126 122 121 121 117 116 121 122 114 114 136 152 144 152 163 141 155 145 106 103 112 124 129 132 137 144 166 184 186 202 202
64 70 63 56 53 82 102 95 86 93 92 105 118 126 133 137 138 133 131 127 122 116 105 105 112 118 118 109 110 103 108 126 119 117 121 112 108 125 127 146 148 158 165 179 172 193 204 191 143
73 65 72 75 58 59 76 92 85 77 92 105 117 130 139 146 145 145 140 130 119 111 100 92 115 113 103 95 101 123 109 110 101 112 109 106 113 122 120 128 137 143 150 159 156 179 116 101 101
120 113 92 84 86 81 85 96 96 104 110 112 121 130 140 144 140 136 135 136 129 124 115 84 65 93 103 101 129 109 91 88 101 86 101 101 95 104 105 123 114 112 120 127 75 71 68 61 53
91 118 133 135 130 147 145 147 149 133 138 138 138 141 146 143 142 140 141 137 133 135 116 100 96 98 119 129 111 88 103 101 89 83 116 107 103 102 99 94 86 84 78 87 87 84 77 69 56
150 188 176 178 183 175 192 189 174 146 154 152 152 151 151 153 154 148 143 139 140 133 119 105 93 99 88 81 79 94 90 90 78 41 77 103 101 82 80 83 92 98 88 71 73 81 74 82 74
209 221 203 189 189 175 212 221 148 151 166 166 172 158 154 160 165 157 150 143 133 126 121 115 104 91 85 79 74 83 76 71 65 40 48 79 89 82 70 74 78 86 82 84 89 86 76 70 70
216 232 211 182 190 194 216 210 158 175 183 179 184 173 167 172 168 159 155 144 127 124 126 129 116 102 97 99 89 64 76 67 62 49 39 51 67 83 81 62 74 77 75 69 86 80 90 93 91
235 240 215 196 183 209 230 222 177 186 198 192 185 179 177 177 165 155 140 124 115 115 125 125 114 113 108 100 98 82 67 66 65 57 57 42 44 79 90 84 78 77 80 71 75 84 79 92 96
293 286 263 207 164 224 245 236 201 189 197 198 189 186 181 175 160 145 139 137 136 134 136 135 136 131 121 117 115 113 99 82 76 69 64 53 43 65 77 77 82 83 95 103 101 92 90 91 108
276 281 275 247 180 254 255 246 217 192 197 200 195 187 176 170 155 149 158 157 146 150 167 146 138 135 127 131 139 131 124 110 95 75 63 63 67 69 103 103 99 90 90 88 89 93 90 98 115
259 272 287 294 282 260 263 254 219 196 196 194 198 184 175 174 165 163 165 149 147 160 173 152 140 138 134 128 95 101 89 80 88 86 63 48 62 54 62 85 102 111 105 113 110 105 97 70 31
266 276 285 281 274 272 250 271 222 191 184 189 188 184 182 179 168 162 157 151 157 160 165 150 142 138 131 126 118 125 130 139 141 135 140 117 97 80 59 72 75 112 108 121 142 116 98 96 50
285 314 281 271 268 273 258 259 236 171 180 188 187 185 184 176 167 161 156 158 158 147 142 133 124 121 120 128 126 120 129 138 125 125 128 122 105 104 88 88 77 101 112 120 102 101 88 91 117
262 272 260 250 260 260 243 236 234 172 178 178 179 183 180 174 166 157 151 151 144 138 136 130 123 122 125 135 140 150 144 136 132 132 140 138 130 122 117 126 115 96 98 97 108 115 111 80 59
239 247 250 222 218 243 215 213 182 118 126 147 165 174 169 164 159 155 152 154 149 147 146 140 134 134 145 161 166 164 158 158 153 148 145 145 135 134 151 133 105 82 104 104 98 109 130 137 111
231 234 254 276 275 288 195 209 117 107 110 128 148 155 156 159 161 156 155 157 153 152 152 153 151 151 155 173 180 160 150 139 129 133 134 142 134 144 137 119 113 106 111 121 114 107 133 120 116
235 241 261 286 296 289 223 153 110 114 123 135 144 151 160 164 160 155 153 159 158 155 156 160 155 152 159 173 184 166 143 137 141 143 132 129 142 141 130 123 120 100 81 83 97 83 73 76 69
247 266 269 264 284 279 264 215 162 147 138 136 142 151 154 159 162 159 156 161 162 156 156 161 160 164 168 171 183 157 135 133 141 143 141 140 135 132 133 140 136 121 104 81 74 76 70 89 89
222 237 247 260 265 281 294 42 81 115 118 138 146 146 151 158 162 157 156 160 158 153 156 163 166 163 162 168 169 153 141 142 142 134 152 161 155 150 147 149 138 138 136 119 96 99 102 102 116
229 239 242 248 263 266 273 167 84 102 107 111 117 127 142 148 151 152 155 157 160 161 163 168 171 167 165 168 166 161 161 163 154 157 170 165 160 157 141 130 122 117 115 111 114 111 98 88 85